Вернуться в каталог

OPS 4682 DEB

АктивенPO
NORAD 38406·DEBRIS·🇺🇸 United States

Запущен Apr 3, 1965 с Vandenberg Space Force Base

Loading…

Ближайшие Пролёты (ближайшие 24 часа)

TLE

УстаревающийSource: Space-Track

Эпоха: Sep 10, 2026, 13:38 UTC

1 38406U 65027DK  26253.56814888  .00000462  00000-0  15017-2 0  9995
2 38406  90.2519  13.0823 0024397  28.7156 331.5304 13.00350942566362

Отслеживайте OPS 4682 DEB в реальном времени с AllMySat

Download on the App Store